Davenport, IA

1:28 PM CST on February 25, 2017 (GMT -0600)
Davenport Municipal

Weather History for KDVN - December, 2011

Change the Weather History Date:

Friday, December 9, 2011

  Actual Average Record
Temperature  
Mean Temperature 16 °F 27 °F  
Max Temperature 24 °F 35 °F 51 °F (1952)
Min Temperature 7 °F 19 °F -9 °F (1958)
Degree Days  
Heating Degree Days 49 38  
Month to date heating degree days 306 325  
Since 1 July heating degree days 1556 1673  
Cooling Degree Days 0 0  
Month to date cooling degree days 0 0  
Year to date cooling degree days 1020 786  
Moisture  
Dew Point 11 °F    
Average Humidity 70    
Maximum Humidity 88    
Minimum Humidity 52    
Precipitation  
Precipitation 0.03 in 0.07 in 0.90 in (2003)
Month to date precipitation 0.88 0.63  
Year to date precipitation 31.76 34.93  
Snow  
Snow 0.60 in - - ()
Month to date snowfall 1.3  
Since 1 July snowfall 1.8  
Snow Depth 1.00 in    
Sea Level Pressure  
Sea Level Pressure 30.36 in    
Wind  
Wind Speed 9 mph (WNW)    
Max Wind Speed 17 mph    
Max Gust Speed 20 mph    
Visibility 7 miles    
Events Snow    
T = Trace of Precipitation, MM = Missing Value Source: NWS Daily Summary

Daily Weather History Graph

Daily Weather History Graph

Search for Another Location

Airport or City:

Trip Planner

Search our weather history database for the weather conditions in past years. The results will help you decide how hot, cold, wet, or windy it might be!

Date:

Astronomy

Dec. 09, 2011 Rise Set
Actual Time 7:17 AM CST 4:32 PM CST
Civil Twilight 6:45 AM CST 5:03 PM CST
Nautical Twilight 6:11 AM CST 5:38 PM CST
Astronomical Twilight 5:37 AM CST 6:11 PM CST
Moon 3:55 PM CST (12/9) 6:24 AM CST (12/9)
Length of Visible Light 10h 17m
Length of Day
9h 14m
Waxing Gibbous, 99% of the Moon is Illuminated
Dec 9
Waxing Gibbous
Dec 10
Full
Dec 17
Last Quarter
Dec 24
New
Jan 1
First Quarter

Hourly Weather History & Observations

Time (CST) Temp. Windchill Dew Point Humidity Pressure Visibility Wind Dir Wind Speed Gust Speed Precip Events Conditions
12:02 AM 24.8 °F 13.4 °F 19.4 °F 80% 30.23 in 3.0 mi NW 12.7 mph - 0.00 in Snow Light Snow
12:09 AM 24.8 °F 14.0 °F 17.6 °F 74% 30.23 in 2.5 mi NW 11.5 mph - 0.00 in Snow Light Snow
12:35 AM 23.0 °F 12.4 °F 17.6 °F 80% 30.23 in 3.0 mi NW 10.4 mph - 0.00 in Snow Light Snow
12:42 AM 23.0 °F 13.1 °F 17.6 °F 80% 30.23 in 2.5 mi NNW 9.2 mph - 0.00 in Snow Light Snow
12:46 AM 24.8 °F 16.1 °F 17.6 °F 74% 30.23 in 3.0 mi NW 8.1 mph - 0.00 in Snow Light Snow
12:52 AM 24.1 °F 12.0 °F 18.0 °F 77% 30.26 in 5.0 mi NW 13.8 mph - 0.00 in Snow Light Snow
1:52 AM 24.1 °F 12.5 °F 16.0 °F 71% 30.28 in 2.5 mi NW 12.7 mph - 0.00 in Snow Light Snow
1:59 AM 23.0 °F 10.6 °F 15.8 °F 74% 30.25 in 1.8 mi NNW 13.8 mph - 0.00 in Snow Light Snow
2:31 AM 21.2 °F 10.9 °F 17.6 °F 86% 30.26 in 2.5 mi NW 9.2 mph - 0.00 in Snow Light Snow
2:48 AM 21.2 °F 12.6 °F 17.6 °F 86% 30.26 in 3.0 mi NW 6.9 mph - 0.00 in Snow Light Snow
2:52 AM 21.9 °F 14.5 °F 17.1 °F 82% 30.30 in 2.5 mi WNW 5.8 mph - 0.00 in Snow Light Snow
3:02 AM 21.2 °F 14.9 °F 17.6 °F 86% 30.26 in 3.0 mi NW 4.6 mph - 0.00 in Snow Light Snow
3:52 AM 21.9 °F 15.7 °F 17.1 °F 82% 30.29 in 10.0 mi West 4.6 mph - 0.00 in   Overcast
4:52 AM 21.0 °F 14.6 °F 17.1 °F 85% 30.30 in 10.0 mi West 4.6 mph - N/A   Overcast
7:52 AM 14.0 °F 2.9 °F 10.0 °F 84% 30.35 in 10.0 mi WNW 8.1 mph - N/A   Clear
8:52 AM 16.0 °F 7.4 °F 10.0 °F 77% 30.37 in 10.0 mi West 5.8 mph - N/A   Clear
9:52 AM 19.0 °F 7.5 °F 9.0 °F 65% 30.39 in 10.0 mi WNW 10.4 mph - N/A   Clear
10:52 AM 19.9 °F 7.3 °F 10.0 °F 65% 30.40 in 10.0 mi WNW 12.7 mph - N/A   Clear
11:52 AM 21.9 °F 9.2 °F 9.0 °F 58% 30.39 in 10.0 mi NW 13.8 mph - N/A   Clear
12:52 PM 23.0 °F 11.1 °F 9.0 °F 55% 30.39 in 10.0 mi NW 12.7 mph - N/A   Clear
1:52 PM 23.0 °F 10.6 °F 9.0 °F 55% 30.39 in 10.0 mi WNW 13.8 mph - N/A   Clear
2:52 PM 23.0 °F 11.7 °F 8.1 °F 53% 30.40 in 10.0 mi WNW 11.5 mph - N/A   Clear
3:52 PM 21.9 °F 11.7 °F 7.0 °F 53% 30.42 in 10.0 mi WNW 9.2 mph - N/A   Clear
4:52 PM 19.0 °F 9.0 °F 7.0 °F 59% 30.44 in 10.0 mi WNW 8.1 mph - N/A   Clear
5:52 PM 15.1 °F 5.2 °F 6.1 °F 68% 30.45 in 10.0 mi West 6.9 mph - N/A   Clear
6:52 PM 12.9 °F 2.6 °F 5.0 °F 71% 30.47 in 10.0 mi WSW 6.9 mph - N/A   Clear
7:52 PM 10.9 °F 2.9 °F 3.0 °F 70% 30.49 in 10.0 mi West 4.6 mph - N/A   Clear
8:52 PM 10.0 °F 0.4 °F 1.0 °F 67% 30.50 in 10.0 mi West 5.8 mph - N/A   Clear
9:52 PM 9.0 °F -2.2 °F 1.0 °F 70% 30.52 in 10.0 mi West 6.9 mph - N/A   Clear
10:52 PM 10.0 °F 0.4 °F 1.9 °F 70% 30.53 in 10.0 mi WNW 5.8 mph - N/A   Clear
11:52 PM 7.0 °F -4.5 °F -0.0 °F 73% 30.53 in 10.0 mi West 6.9 mph - N/A   Clear